Вернуться в каталог

DELTA 1 DEB

АктивенPO
NORAD 7957·DEBRIS·🇺🇸 United States

Запущен Jul 23, 1972 с Vandenberg Space Force Base

Loading…

Ближайшие Пролёты (ближайшие 24 часа)

TLE

СвежийSource: Space-Track

Эпоха: Sep 14, 2026, 01:12 UTC

1 07957U 72058CM  26257.05009826  .00000565  00000-0  30575-3 0  9991
2 07957  98.8920 102.4753 0510663 314.4232  41.6169 13.65432559821199

Отслеживайте DELTA 1 DEB в реальном времени с AllMySat

Download on the App Store